Home > Time Zones > World Clock > Weather > Fiji > Nadi > Past weeks

Flag for Fiji Weather past 2 weeks in Nadi, Fiji

Now
77 °F

Partly cloudy.


Feels Like: 79 °F
Forecast: 75 / 85 °F
Wind: 5 mph from Southeast

Location: Nandi

Current Time: Oct 21, 2014 at 1:50:21 AM

Latest Report: Oct 21, 2014 at 1:00 AM


Visibility: N/A

Pressure: 29.89 "Hg

Humidity: 79%

Dew point: 70 °F

Location of NadiLocation

Historic Weather in Nadi — Graph

°F

Nadi temperature yesterday

Maximum temperature yesterday: 84 °F (at 1:00 PM)
Minimum temperature yesterday: 70 °F (at 6:00 AM)
Average temperature yesterday: 78 °F

Past Weeks' High & Low Weather Summary

 TemperatureHumidityPressure
High93 °F (Oct 10, 1:00 PM)100% (Oct 6, 7:00 PM)30.01 "Hg (Oct 6, 7:00 PM)
Low64 °F (Oct 18, 5:00 AM)37% (Oct 8, 2:00 PM)29.80 "Hg (Oct 11, 4:00 PM)
Average77 °F73%29.91 "Hg
* Reported Midnight between Oct 5 and Oct 6 — Midnight between Oct 20 and Oct 21, Nadi, Weather by CustomWeather, © 2014

Note: Actual official high and low records may vary slightly from our data, if they occured in-between our weather recording intervals... More about our weather records

Advertising

Nadi weather history for previous 24 hours

 ConditionsComfort  
Time TempWeatherWind HumidityBarometerVisibility
12:00 AM
Oct 21
77 °FPartly cloudy.3 mph79%29.92 "HgN/A
11:00 PM
Oct 20
77 °FPartly cloudy.3 mph79%29.92 "HgN/A
10:00 PM77 °FPartly cloudy.5 mph79%29.92 "HgN/A
9:00 PM79 °FPartly cloudy.3 mph74%29.92 "HgN/A
8:00 PM79 °FPartly cloudy.6 mph74%29.92 "HgN/A
7:00 PM79 °FPartly cloudy.7 mph70%29.89 "HgN/A
6:00 PM82 °FBroken clouds.9 mph62%29.86 "HgN/A
5:00 PM82 °FBroken clouds.10 mph62%29.83 "HgN/A
3:00 PM84 °FBroken clouds.13 mph62%29.86 "HgN/A
2:00 PM82 °FBroken clouds.12 mph66%29.89 "HgN/A
1:00 PM84 °FBroken clouds.13 mph62%29.89 "HgN/A
12:00 PM82 °FPartly sunny.14 mph66%29.92 "HgN/A
11:00 AM82 °FScattered clouds.14 mph66%29.92 "HgN/A
10:00 AM82 °FPartly sunny.12 mph66%29.95 "HgN/A
9:00 AM82 °FPartly sunny.5 mph58%29.95 "HgN/A
8:00 AM79 °FScattered clouds.No wind61%29.95 "HgN/A
7:00 AM72 °FPartly sunny.No wind83%29.95 "HgN/A
6:00 AM70 °FPartly sunny.6 mph83%29.92 "HgN/A
5:00 AM72 °FPassing clouds.No wind78%29.89 "HgN/A
4:00 AM72 °FPassing clouds.No wind78%29.89 "HgN/A
3:00 AM72 °FPassing clouds.7 mph78%29.89 "HgN/A
2:00 AM72 °FPassing clouds.6 mph83%29.89 "HgN/A
1:00 AM73 °FPassing clouds.No wind78%29.92 "HgN/A
Weather by CustomWeather, © 2014

See weather overviewHow to use our weather pages